When you browse on this site, cookies collect data to enhance your experience and personalize the content and advertising you see.
Visit our Privacy Policy to learn more. By continuing to use the site, you agree to this use of cookies and data.

Hourly Weather Arakaka

Today, 5 July, Sunday

Time Temperature Precipitation Wind Pressure Humidity
00:00 +22°C° 0 mm 0 mps 753 mmHg 99%
01:00 +22°C° 0 mm 0 mps 753 mmHg 99%
02:00 +22°C° 0 mm 0 mps 752 mmHg 99%
03:00 +22°C° 0.3 mm 0 mps 752 mmHg 99%
04:00 +24°C° 0.3 mm 1 mps 752 mmHg 99%
05:00 +24°C° 0.3 mm 1 mps 752 mmHg 99%
06:00 +22°C° 0.9 mm 0 mps 753 mmHg 99%
07:00 +23°C° 0.9 mm 0 mps 753 mmHg 98%
08:00 +23°C° 0.9 mm 0 mps 753 mmHg 98%
09:00 +23°C° 0.2 mm 0 mps 754 mmHg 98%
10:00 +23°C° 0.2 mm 0 mps 754 mmHg 97%
11:00 +23°C° 0.2 mm 0 mps 754 mmHg 97%
12:00 +23°C° 0.1 mm 0 mps 753 mmHg 97%
13:00 +24°C° 0.1 mm 0 mps 753 mmHg 97%
14:00 +24°C° 0.1 mm 0 mps 752 mmHg 97%
15:00 +24°C° 0 mm 0 mps 752 mmHg 95%
16:00 +24°C° 0 mm 0 mps 751 mmHg 93%
17:00 +24°C° 0 mm 0 mps 751 mmHg 92%
18:00 +24°C° 0 mm 0 mps 752 mmHg 94%
19:00 +23°C° 0 mm 0 mps 752 mmHg 96%
20:00 +23°C° 0 mm 0 mps 752 mmHg 98%
21:00 +23°C° 0 mm 0 mps 753 mmHg 98%
22:00 +22°C° 0 mm 0 mps 753 mmHg 98%
23:00 +22°C° 0 mm 0 mps 753 mmHg 99%

Tomorrow, 6 July, Monday

Time Temperature Precipitation Wind Pressure Humidity
00:00 +22°C° 0 mm 0 mps 753 mmHg 99%
01:00 +22°C° 0 mm 0 mps 753 mmHg 99%
02:00 +22°C° 0 mm 0 mps 752 mmHg 99%
03:00 +22°C° 0 mm 0 mps 752 mmHg 99%
04:00 +22°C° 0 mm 0 mps 752 mmHg 99%
05:00 +21°C° 0 mm 0 mps 752 mmHg 99%
06:00 +23°C° 0 mm 0 mps 753 mmHg 95%
07:00 +24°C° 0 mm 0 mps 753 mmHg 91%
08:00 +27°C° 0 mm 1 mps 754 mmHg 87%
09:00 +28°C° 0.7 mm 1 mps 754 mmHg 86%
10:00 +29°C° 0.7 mm 1 mps 754 mmHg 85%
11:00 +30°C° 0.7 mm 1 mps 754 mmHg 84%
12:00 +29°C° 1.5 mm 1 mps 753 mmHg 87%
13:00 +29°C° 1.5 mm 1 mps 752 mmHg 90%
14:00 +28°C° 1.5 mm 1 mps 752 mmHg 93%
15:00 +28°C° 0.6 mm 1 mps 751 mmHg 94%
16:00 +27°C° 0.6 mm 1 mps 751 mmHg 95%
17:00 +27°C° 0.6 mm 1 mps 751 mmHg 95%
18:00 +27°C° 0.2 mm 1 mps 752 mmHg 96%
19:00 +26°C° 0.2 mm 1 mps 752 mmHg 97%
20:00 +25°C° 0.2 mm 1 mps 753 mmHg 98%
21:00 +25°C° 0 mm 1 mps 753 mmHg 98%
22:00 +25°C° 0 mm 1 mps 753 mmHg 98%
23:00 +24°C° 0 mm 1 mps 753 mmHg 99%

Day after tomorrow, 7 July, Tuesday

Time Temperature Precipitation Wind Pressure Humidity
00:00 +24°C° 0 mm 1 mps 753 mmHg 99%
01:00 +22°C° 0 mm 0 mps 752 mmHg 99%
02:00 +21°C° 0 mm 0 mps 752 mmHg 99%
03:00 +21°C° 0 mm 0 mps 752 mmHg 99%
04:00 +21°C° 0 mm 0 mps 752 mmHg 99%
05:00 +21°C° 0 mm 0 mps 752 mmHg 99%
06:00 +22°C° 0 mm 0 mps 752 mmHg 97%
07:00 +23°C° 0 mm 0 mps 753 mmHg 95%
08:00 +26°C° 0 mm 1 mps 753 mmHg 94%
09:00 +28°C° 0 mm 1 mps 753 mmHg 84%
10:00 +30°C° 0 mm 1 mps 753 mmHg 75%
11:00 +31°C° 0 mm 1 mps 753 mmHg 66%
12:00 +31°C° 0.8 mm 2 mps 752 mmHg 73%
13:00 +30°C° 0.8 mm 2 mps 752 mmHg 80%
14:00 +30°C° 0.8 mm 2 mps 751 mmHg 87%
15:00 +29°C° 0.8 mm 2 mps 751 mmHg 89%
16:00 +29°C° 0.8 mm 1 mps 751 mmHg 92%
17:00 +28°C° 0.8 mm 1 mps 751 mmHg 94%
18:00 +27°C° 0.2 mm 1 mps 751 mmHg 96%
19:00 +26°C° 0.2 mm 1 mps 752 mmHg 97%
20:00 +26°C° 0.2 mm 1 mps 752 mmHg 99%
21:00 +25°C° 0 mm 1 mps 753 mmHg 99%
22:00 +25°C° 0 mm 1 mps 753 mmHg 99%
23:00 +25°C° 0 mm 1 mps 753 mmHg 99%

8 July, Wednesday

Time Temperature Precipitation Wind Pressure Humidity
00:00 +24°C° 0 mm 1 mps 753 mmHg 99%
01:00 +22°C° 0 mm 0 mps 752 mmHg 99%
02:00 +22°C° 0 mm 0 mps 752 mmHg 99%
03:00 +22°C° 0 mm 0 mps 752 mmHg 99%
04:00 +22°C° 0 mm 0 mps 752 mmHg 99%
05:00 +21°C° 0 mm 0 mps 752 mmHg 99%
06:00 +23°C° 0 mm 0 mps 752 mmHg 97%
07:00 +24°C° 0 mm 0 mps 753 mmHg 95%
08:00 +25°C° 0 mm 0 mps 753 mmHg 92%
09:00 +29°C° 0.1 mm 1 mps 753 mmHg 83%
10:00 +30°C° 0.1 mm 1 mps 753 mmHg 73%
11:00 +32°C° 0.1 mm 1 mps 753 mmHg 64%
12:00 +32°C° 0.5 mm 1 mps 753 mmHg 67%
13:00 +32°C° 0.5 mm 2 mps 752 mmHg 70%
14:00 +31°C° 0.5 mm 2 mps 751 mmHg 74%
15:00 +30°C° 0.7 mm 1 mps 751 mmHg 79%
16:00 +30°C° 0.7 mm 1 mps 751 mmHg 85%
17:00 +29°C° 0.7 mm 1 mps 751 mmHg 90%
18:00 +28°C° 0.1 mm 1 mps 751 mmHg 93%
19:00 +26°C° 0.1 mm 1 mps 752 mmHg 95%
20:00 +25°C° 0.1 mm 1 mps 752 mmHg 98%
21:00 +23°C° 0 mm 0 mps 753 mmHg 98%
22:00 +23°C° 0 mm 0 mps 753 mmHg 99%
23:00 +23°C° 0 mm 0 mps 753 mmHg 99%

9 July, Thursday

Time Temperature Precipitation Wind Pressure Humidity
00:00 +22°C° 0 mm 0 mps 753 mmHg 99%
01:00 +22°C° 0 mm 0 mps 752 mmHg 99%
02:00 +22°C° 0 mm 0 mps 752 mmHg 99%
03:00 +22°C° 0 mm 0 mps 752 mmHg 99%
04:00 +22°C° 0 mm 0 mps 752 mmHg 99%
05:00 +22°C° 0 mm 0 mps 752 mmHg 99%
06:00 +23°C° 0.1 mm 0 mps 753 mmHg 97%
07:00 +24°C° 0.1 mm 0 mps 753 mmHg 95%
08:00 +25°C° 0.1 mm 0 mps 753 mmHg 93%
09:00 +26°C° 0.7 mm 0 mps 753 mmHg 89%
10:00 +28°C° 0.7 mm 1 mps 753 mmHg 86%
11:00 +29°C° 0.7 mm 1 mps 753 mmHg 82%
12:00 +30°C° 1.2 mm 1 mps 753 mmHg 82%
13:00 +30°C° 1.2 mm 1 mps 752 mmHg 81%
14:00 +30°C° 1.2 mm 1 mps 751 mmHg 81%
15:00 +29°C° 0.8 mm 1 mps 751 mmHg 85%
16:00 +29°C° 0.8 mm 1 mps 751 mmHg 88%
17:00 +28°C° 0.8 mm 1 mps 751 mmHg 92%
18:00 +27°C° 0.2 mm 1 mps 751 mmHg 94%
19:00 +26°C° 0.2 mm 1 mps 752 mmHg 96%
20:00 +25°C° 0.2 mm 1 mps 752 mmHg 98%
21:00 +23°C° 0 mm 0 mps 753 mmHg 98%
22:00 +23°C° 0 mm 0 mps 753 mmHg 99%
23:00 +22°C° 0 mm 0 mps 753 mmHg 99%

10 July, Friday

Time Temperature Precipitation Wind Pressure Humidity
00:00 +22°C° 0 mm 0 mps 753 mmHg 99%
01:00 +22°C° 0 mm 0 mps 752 mmHg 99%
02:00 +22°C° 0 mm 0 mps 752 mmHg 99%
03:00 +22°C° 0 mm 0 mps 752 mmHg 99%
04:00 +22°C° 0 mm 0 mps 752 mmHg 99%
05:00 +22°C° 0 mm 0 mps 752 mmHg 99%
06:00 +23°C° 0 mm 0 mps 752 mmHg 97%
07:00 +24°C° 0 mm 0 mps 753 mmHg 95%
08:00 +25°C° 0 mm 0 mps 753 mmHg 93%
09:00 +29°C° 0 mm 1 mps 753 mmHg 80%
10:00 +31°C° 0 mm 1 mps 753 mmHg 68%
11:00 +33°C° 0 mm 1 mps 753 mmHg 55%
12:00 +32°C° 1 mm 2 mps 753 mmHg 67%
13:00 +31°C° 1 mm 2 mps 752 mmHg 78%
14:00 +30°C° 1 mm 2 mps 751 mmHg 90%
15:00 +30°C° 1.3 mm 2 mps 751 mmHg 91%
16:00 +29°C° 1.3 mm 1 mps 751 mmHg 92%
17:00 +28°C° 1.3 mm 1 mps 751 mmHg 94%
18:00 +27°C° 0.3 mm 1 mps 752 mmHg 95%
19:00 +27°C° 0.3 mm 1 mps 752 mmHg 97%
20:00 +26°C° 0.3 mm 1 mps 752 mmHg 98%
21:00 +25°C° 0.2 mm 1 mps 753 mmHg 99%
22:00 +25°C° 0.2 mm 1 mps 753 mmHg 99%
23:00 +25°C° 0.2 mm 1 mps 753 mmHg 99%
Show more